Orbital Elements
Epoch 2018 Mar. 23.0 TT = JDT 2458200.5
T 2018 Mar. 30.58594 TT Williams
q 5.1168632 (2000.0) P Q
z -0.0005786 Peri. 68.35609 +0.39408579 +0.89228313
+/-0.0000007 Node 133.15846 +0.69129029 -0.44572346
e 1.0029604 Incl. 162.42301 +0.60565182 -0.07184293
From 331 observations 2017 Jan. 16-2019 Oct. 31, mean residual 0".5.
|